TimeICT,TemperatureF,Dew PointF,Humidity,Sea Level PressureIn,VisibilityMPH,Wind Direction,Wind SpeedMPH,Gust SpeedMPH,PrecipitationIn,Events,Conditions,WindDirDegrees,DateUTC
12:00 AM,78.8,77.0,94,29.74,5.6,Calm,Calm,-,N/A,,Scattered Clouds,0,2013-07-29 17:00:00
12:30 AM,78.8,77.0,94,29.74,5.6,Calm,Calm,-,N/A,,Scattered Clouds,0,2013-07-29 17:30:00
1:00 AM,78.8,77.0,94,29.74,5.6,Calm,Calm,-,N/A,,Scattered Clouds,0,2013-07-29 18:00:00
7:00 AM,78.8,75.2,89,29.71,6.2,Calm,Calm,-,N/A,,Scattered Clouds,0,2013-07-30 00:00:00
7:30 AM,80.6,77.0,89,29.71,6.2,Variable,1.2,-,N/A,,Scattered Clouds,0,2013-07-30 00:30:00
8:00 AM,80.6,75.2,84,29.71,6.2,Variable,3.5,-,N/A,,Scattered Clouds,0,2013-07-30 01:00:00
8:30 AM,82.4,73.4,74,29.71,6.2,SSW,5.8,-,N/A,,Scattered Clouds,210,2013-07-30 01:30:00
9:00 AM,82.4,73.4,74,29.71,6.2,SSW,6.9,-,N/A,,Scattered Clouds,210,2013-07-30 02:00:00
10:00 AM,86.0,77.0,74,29.71,6.2,SW,5.8,-,N/A,,Scattered Clouds,220,2013-07-30 03:00:00
10:30 AM,86.0,75.2,70,29.71,6.2,WSW,8.1,-,N/A,,Scattered Clouds,250,2013-07-30 03:30:00
11:00 AM,86.0,75.2,70,29.71,6.2,WSW,6.9,-,N/A,,Scattered Clouds,240,2013-07-30 04:00:00
11:30 AM,87.8,75.2,66,29.71,6.2,SW,10.4,-,N/A,,Scattered Clouds,230,2013-07-30 04:30:00
12:00 PM,87.8,73.4,62,29.68,6.2,West,8.1,-,N/A,,Partly Cloudy,260,2013-07-30 05:00:00
12:30 PM,82.4,77.0,84,29.68,3.1,SW,5.8,-,N/A,Rain,Rain,230,2013-07-30 05:30:00
1:00 PM,82.4,77.0,84,29.65,5.6,ESE,4.6,-,N/A,,Mostly Cloudy,120,2013-07-30 06:00:00
1:30 PM,84.2,77.0,79,29.62,5.6,Variable,3.5,-,N/A,,Mostly Cloudy,0,2013-07-30 06:30:00
2:00 PM,75.2,73.4,94,29.65,1.2,SSW,16.1,33.4,N/A,Rain,Heavy Rain,210,2013-07-30 07:00:00
2:30 PM,77.0,75.2,94,29.62,5.6,SE,5.8,-,N/A,,Mostly Cloudy,140,2013-07-30 07:30:00
4:00 PM,77.0,75.2,94,29.65,3.1,West,17.3,-,N/A,Rain,Rain,270,2013-07-30 09:00:00
4:30 PM,77.0,75.2,94,29.62,4.3,West,5.8,-,N/A,Rain,Light Rain,270,2013-07-30 09:30:00
5:00 PM,77.0,75.2,94,29.65,4.3,WNW,4.6,-,N/A,Rain,Light Rain,290,2013-07-30 10:00:00
5:30 PM,77.0,75.2,94,29.65,4.3,Calm,Calm,-,N/A,Rain,Light Rain,0,2013-07-30 10:30:00
6:00 PM,77.0,73.4,89,29.65,4.3,Calm,Calm,-,N/A,Rain,Light Rain,0,2013-07-30 11:00:00
6:30 PM,77.0,73.4,89,29.65,4.3,Calm,Calm,-,N/A,Rain,Light Rain,0,2013-07-30 11:30:00
7:00 PM,77.0,75.2,94,29.68,5.0,SSE,3.5,-,N/A,Rain,Light Rain,150,2013-07-30 12:00:00
7:30 PM,77.0,75.2,94,29.68,5.0,Calm,Calm,-,N/A,Rain,Light Rain,0,2013-07-30 12:30:00
8:00 PM,77.0,75.2,94,29.71,5.0,Calm,Calm,-,N/A,Rain,Light Rain,0,2013-07-30 13:00:00
8:30 PM,77.0,75.2,94,29.71,5.0,Calm,Calm,-,N/A,,Mostly Cloudy,0,2013-07-30 13:30:00
9:00 PM,77.0,75.2,94,29.71,5.0,Calm,Calm,-,N/A,,Mostly Cloudy,0,2013-07-30 14:00:00
9:30 PM,77.0,75.2,94,29.71,5.0,Calm,Calm,-,N/A,,Mostly Cloudy,0,2013-07-30 14:30:00
10:00 PM,77.0,75.2,94,29.74,5.0,Calm,Calm,-,N/A,,Mostly Cloudy,0,2013-07-30 15:00:00
10:30 PM,77.0,75.2,94,29.74,5.0,Calm,Calm,-,N/A,,Mostly Cloudy,0,2013-07-30 15:30:00
11:00 PM,77.0,75.2,94,29.74,5.0,Calm,Calm,-,N/A,,Mostly Cloudy,0,2013-07-30 16:00:00
11:30 PM,77.0,75.2,94,29.71,5.0,Calm,Calm,-,N/A,,Mostly Cloudy,0,2013-07-30 16:30:00